User: anonymous   Login
Location: Caltech
(34.1382°N, 118.1253°W)
Time: 19:20:18
(UTC-07:00)
Language:

Cosmos 1980 Rocket - Orbit

View from above orbital plane
View from above orbital plane
View from above satellite
View from above satellite

Ground track
Ground track

The orbit data is extracted from the following two-line orbital elements,

1 19650U 88102B   14295.47975571 -.00000102  00000-0 -27670-4 0  4138
2 19650 071.0004 251.9057 0015566 224.3289 252.4835 14.15681662338897
Epoch (UTC): 22 October 2014 11:30:50
Eccentricity: 0.0015566
inclination: 71.0004°
perigee height: 829 km
apogee height: 851 km
right ascension of ascending node: 251.9057°
argument of perigee: 224.3289°
revolutions per day: 14.15681662
mean anomaly at epoch: 252.4835°
orbit number at epoch: 33889

The dashed part of the orbit path shows where the satellite is in the earth's shadow,  

DLR